Regional Weather Roundup
Issued by NWS

Home | Current Version | Previous Version | Graphics & Text | Print | Product List | Glossary On
Versions: 1 2 3 4 5 6 7 8 9 10 11 12 13 14 15 16 17 18 19 20 21 22 23 24 25 26 27 28 29 30 31 32 33 34 35 36 37 38 39 40 41 42 43 44 45 46 47 48 49 50
000
ASUS43 KIND 231509
RWRIN

WEATHER ROUNDUP FOR INDIANA
NATIONAL WEATHER SERVICE INDIANAPOLIS IN
1100 AM EDT TUE SEP 23 2014

NOTE: "FAIR" INDICATES FEW OR NO CLOUDS BELOW 12,000 FEET WITH NO
SIGNIFICANT WEATHER AND/OR OBSTRUCTIONS TO VISIBILITY.

* - STATION DOES NOT REPORT WEATHER SUCH AS PRECIPITATION OR FOG.

+ - STATION NOT QUALITY CONTROLLED BY THE NATIONAL WEATHER SERVICE.
    USE DATA WITH CAUTION...ESPECIALLY DEWPOINT AND RELATIVE
    HUMIDITY OBSERVATIONS.

INZ001>003-010>013-019-020-231600-
NORTHWEST INDIANA

CITY           SKY/WX    TMP DP  RH WIND       PRES   REMARKS
GARY /AIRPORT/ SUNNY     63  46  55 S7        30.26F
KNOX *+        SUNNY     59  48  67 CALM      30.36R
LA PORTE +     SUNNY     59  49  69 SW5       30.37R
MICHIGAN CITY+ SUNNY     63  46  55 SW6       30.36R
MONTICELLO +   SUNNY     59  50  72 CALM      30.36S
RENSSELAER +   SUNNY     61  50  67 S3        30.36S
VALPARAISO     SUNNY     60  47  61 SW8       30.37R

$$

LMZ046-743>745-231600-
SOUTHERN LAKE MICHIGAN

STATION/POSITION TIME  TEMP WIND        PRES
                       AIR  DIR/SP/G
                 (UTC) (F)  (DEG/KT/KT) (MB)

$$

INZ004-005-014>016-021>024-231600-
NORTH CENTRAL INDIANA

CITY           SKY/WX    TMP DP  RH WIND       PRES   REMARKS
ELKHART        SUNNY     59  46  63 CALM      30.27F
GOSHEN         SUNNY    N/A N/A N/A VRB3      30.36R
LOGANSPORT +   SUNNY     59  46  63 CALM      30.37S
PERU/GRISSOM   SUNNY     59  51  75 W2        30.36S
ROCHESTER +    SUNNY     63  52  67 S3        30.37S
SOUTH BEND     SUNNY     60  48  64 SW5       30.37R
WARSAW +       SUNNY     59  46  63 CALM      30.37R

$$

INZ006>009-017-018-025>027-231600-
NORTHEAST INDIANA

CITY           SKY/WX    TMP DP  RH WIND       PRES   REMARKS
ANGOLA *+      SUNNY     63  52  67 S3        30.36R
AUBURN +       SUNNY     61  46  59 CALM      30.38R
FORT WAYNE     SUNNY     60  49  66 CALM      30.38R
HUNTINGTON +   SUNNY     58  50  72 CALM      30.37R

$$

INZ028-029-035-036-043>045-051>053-231600-
WEST CENTRAL INDIANA

CITY           SKY/WX    TMP DP  RH WIND       PRES   REMARKS
GREENCASTLE +  SUNNY     61  48  63 SE5       30.36S
LAFAYETTE      SUNNY     60  50  69 CALM      30.36R
TERRE HAUTE    SUNNY     61  48  62 VRB5      30.36R

$$

INZ030>032-037>040-046>048-054>057-064-065-231600-
CENTRAL INDIANA

CITY           SKY/WX    TMP DP  RH WIND       PRES   REMARKS
ANDERSON       SUNNY     59  46  63 CALM      30.38R
CP ATTERBURY + SUNNY     59  46  63 CALM      30.37S
FRANKFORT +    SUNNY     63  49  61 E3        30.37R
INDIANAPOLIS   SUNNY     60  46  59 SE3       30.36S
-EAGLE CREEK   SUNNY     62  45  53 SE6       30.36R
KOKOMO *+      SUNNY     61  46  59 CALM      30.37S
MARION +       SUNNY     60  47  61 CALM      30.37S
MT COMFORT *+  SUNNY     63  39  42 CALM      30.37R
SHELBYVILLE    SUNNY     63  45  51 S3        30.36S
ZIONSVILLE +   SUNNY     63  49  60 E3        30.37R

$$

INZ033-034-041-042-049-050-058-059-231600-
EAST CENTRAL INDIANA

CITY           SKY/WX    TMP DP  RH WIND       PRES   REMARKS
MUNCIE         SUNNY     61  42  49 VRB3      30.37R

$$

INZ060-061-067>069-081>083-085>088-231600-
SOUTHWEST INDIANA

CITY           SKY/WX    TMP DP  RH WIND       PRES   REMARKS
EVANSVILLE     SUNNY     62  47  57 E7        30.34R
WASHINGTON +   SUNNY     62  46  55 SE7       30.35R

$$

INZ062-063-066-070>080-084-089>092-231600-
SOUTH CENTRAL AND SOUTHEAST INDIANA

CITY           SKY/WX    TMP DP  RH WIND       PRES   REMARKS
BLOOMINGTON    SUNNY     61  43  51 E6        30.35S
SEYMOUR +      SUNNY     61  46  59 SE5       30.36

$$



USA.gov is the U.S. government's official web portal to all federal, state and local government web resources and services.